STARLINK-11486, 62467

Orbit data source: Space-Track

STARLINK-11486, 62467 is a payload satellite owned by SpaceX/Seattle (US) in LEO that was launched on Tue, 31 Dec 2024 UTC via an FALCON 9 launch vehicle from the Air Force Eastern Test Range (AFETR). Payload-class satellites include a variety of spacecraft equipped with specific instruments for various scientific and technological missions. These include communications satellites like Starlink; space stations such as the ISS; scientific satellites like the Hubble; Earth observation satellites from companies like Planet Labs, Umbra, and HawkEye 360; GPS; miniature CubeSats for education and research; and military/defense satellites.

Loading next visibility...
Identifier
62467, 2024-254F
Orbit
LEO
Country
Flag of USUS
Related business
Manufacturer
SpaceX/Seattle
Mission
Operational Commercial Communications
Bus & Motor
STARLINK V2MD, Unknown motor
Mass
960 kg wet, ~910 kg dry
Launch date (UTC)
2024-12-31 (10 months ago)
Launch vehicle
FALCON 9
Launch site
Air Force Eastern Test Range (AFETR)
Object type
Payload
Rocket body
Debris
Shape & HBR
Box + 2 Pan, 18.1 m
Radar Cross Section
36.964 m², Large (>1 m²)

Expand to show TLE details & history
Last TLE update: 1 day ago

TLE from 1 day ago
0 STARLINK-11486
1 62467U 24254F   25308.97730324  .00215149  00000-0  16371-2 0  9997
2 62467  43.0001 255.0257 0001371 256.8745 103.1970 15.70840998 49780
Epoch: 2025-11-04T23:27Z
TLE epoch observation values (Epoch: 2025-11-04T23:27:18.999Z)
Latitude
-0.00002°
Longitude
-141.26007°
Altitude
356.474 km
Speed
7.697 km/s
True Right ascension
17h 00m 06s
True Declination
0° 00' 00"
Sunlit
Object was in daylight at epoch
Visualization orbit readout
Latitude
Unknown
Longitude
Unknown
Altitude
Unknown
Speed
Unknown
Apparent Right ascension
Unknown
Apparent Declination
Unknown
Sunlit
N/A
Visualization observer readout
Local Sidereal Time
21:05:01
Azimuth
Unknown
Elevation
Unknown
Doppler factor
Unknown
Orbital elements
Apogee altitude
359.397 km
Perigee altitude
357.55 km
Semi-major axis
6,736.611 km
Eccentricity
0.00014
Inclination
43.0001°
RAAN
255.0257°
Arg. of periapsis
256.8745°
True anomaly
103.2123°
Mean anomaly
103.197°
Eccentric anomaly
103.20465°
Mean motion
3.92537 °/min
Orbital period
91.71 mins
BSTAR
0.0016371
Loading maneuver chart data...
Computing Atmospheric mass density...
Loading historical data...
Loading historical data...
Loading historical data...
Loading historical data...
Loading historical data...
Loading historical data...
Loading historical data...

Documentation

Showing up to 5 results
|